Theta_e
320 320 319 319 320 319 319 319 319 320 320 320 320 320 321 321 321 317 311 315 320 335 336 320 319 319 323 322 334 342 321 318 319 320 322 334 330 337 338 329 330 331 329 336 341
320 319 319 318 319 319 319 320 320 320 320 320 320 320 321 321 314 312 325 342 337 339 312 320 317 320 316 321 328 330 320 323 329 330 328 333 334 334 330 330 327 327 335 339 340
319 319 319 319 319 319 318 318 319 319 320 320 320 320 321 319 311 314 344 340 340 331 311 317 324 322 316 319 326 331 324 330 332 332 334 332 332 336 330 325 327 325 329 337 335
319 318 319 319 319 319 318 318 318 318 319 319 319 320 321 314 304 319 341 343 339 314 309 311 316 313 311 313 328 325 330 333 333 333 331 330 333 331 333 330 331 330 331 335 334
318 318 319 319 319 319 319 318 318 317 317 318 318 319 315 310 311 324 346 340 324 310 305 308 313 313 310 316 329 327 332 333 333 330 331 332 331 330 331 334 334 333 333 333 334
319 319 319 319 318 319 318 318 318 318 318 318 318 319 310 304 324 327 327 327 317 307 305 310 316 316 313 313 326 330 331 329 331 329 330 329 330 332 333 335 332 331 328 331 333
319 319 319 318 318 319 318 317 317 317 318 319 319 317 310 310 321 326 321 315 312 306 306 315 320 315 314 312 333 330 324 326 328 329 328 329 324 324 333 333 330 329 328 328 328
319 319 318 318 318 318 317 317 316 318 318 320 319 314 305 321 320 319 319 313 311 309 309 318 321 315 310 314 329 325 324 315 324 327 327 326 316 326 333 330 326 327 328 328 330
319 318 317 317 317 317 317 316 317 320 320 321 314 309 309 319 310 315 318 316 311 310 309 316 317 309 311 305 315 321 310 315 317 327 324 324 317 327 333 329 325 324 325 327 330
319 318 317 317 317 316 316 316 318 319 320 321 318 308 314 312 311 315 320 318 311 313 311 311 308 303 303 299 296 311 313 317 316 321 323 320 320 325 328 328 324 323 325 325 329
319 317 317 316 316 314 313 312 312 312 316 313 312 312 313 314 317 316 319 314 312 307 301 306 300 297 301 305 308 316 316 316 320 324 320 318 319 321 325 327 322 322 324 324 326
318 317 316 316 315 314 311 308 313 312 306 317 319 312 315 310 309 312 313 308 306 299 304 299 298 304 308 309 308 317 316 315 320 323 320 318 317 323 325 324 326 322 323 324 327
317 316 315 314 314 309 311 313 320 318 306 312 315 310 310 309 309 308 309 307 304 300 301 297 302 308 305 304 306 316 315 314 314 319 319 316 313 317 322 324 326 325 328 325 327
316 314 314 312 309 316 315 319 320 318 301 306 306 310 312 311 306 315 310 306 303 299 301 300 305 305 303 302 304 309 321 319 317 312 305 316 303 313 318 319 321 322 328 328 327
315 314 313 312 308 311 317 320 318 314 291 308 306 315 312 306 308 309 315 309 303 303 299 298 301 301 301 303 306 315 317 320 317 312 310 310 307 312 318 315 319 321 327 328 329
315 313 312 313 310 314 318 319 316 299 293 303 309 307 306 308 309 311 309 309 310 305 305 302 307 303 303 308 311 322 318 317 315 310 301 308 308 309 311 316 320 320 324 329 330
313 312 311 315 316 320 320 314 299 296 307 302 302 306 305 304 306 307 305 300 298 293 295 301 301 304 307 302 310 319 309 298 296 299 297 308 305 309 318 321 322 319 322 329 331
311 310 311 315 318 319 316 306 296 301 300 305 304 305 302 307 305 305 302 298 303 301 297 292 291 300 308 303 300 305 309 300 293 296 302 310 305 309 323 328 327 323 324 329 330
309 315 315 320 318 318 310 299 297 300 303 301 302 302 303 306 305 305 301 299 302 302 295 296 296 304 309 309 306 302 302 310 302 307 301 306 312 322 326 326 326 325 325 328 330
312 317 318 327 325 318 307 301 302 305 304 303 299 303 299 303 303 302 304 307 306 309 307 300 294 304 307 309 308 303 307 298 297 297 296 304 307 309 318 319 321 321 323 327 329
316 312 321 321 321 312 302 302 303 307 306 303 301 300 301 302 304 302 303 308 310 307 307 303 299 299 305 300 300 301 298 299 298 299 296 296 303 320 319 323 320 323 325 325 328
319 308 321 317 306 308 304 304 302 305 309 306 306 304 302 303 303 302 303 306 311 308 302 305 298 294 298 308 308 303 300 299 294 293 298 301 302 324 323 318 324 324 326 328 332
313 313 324 314 301 304 307 306 306 304 303 304 303 306 305 302 301 306 308 311 311 307 303 304 298 292 295 300 304 299 301 297 297 295 292 297 302 320 324 320 323 322 325 329 335
314 308 311 311 309 304 305 306 304 307 305 305 304 305 303 302 307 304 306 309 310 309 324 311 297 295 294 297 303 301 304 301 296 290 292 296 305 313 316 318 321 323 328 330 333
316 309 313 306 307 306 304 305 303 303 305 307 306 306 302 299 303 303 306 307 309 316 311 305 296 299 304 304 305 303 304 306 297 297 293 305 310 315 320 318 317 318 322 330 330
312 311 316 311 310 309 303 304 304 304 304 301 302 303 304 301 303 300 301 303 302 306 305 306 298 304 301 307 307 304 308 309 309 314 311 313 310 318 322 320 316 320 322 324 331
324 324 318 309 307 304 305 306 305 306 307 307 304 302 301 307 308 305 306 305 305 304 302 302 303 299 295 305 304 300 304 308 309 317 316 310 309 315 314 314 312 318 318 328 331
Wind_Speed
11 11 10 11 9 9 10 11 10 11 11 11 12 13 13 14 17 3 7 11 7 14 3 6 8 11 12 10 8 4 2 2 5 12 6 9 7 5 7 22 16 11 15 20 22
12 11 11 11 10 10 10 10 11 11 11 11 12 12 13 14 6 10 12 12 5 7 4 8 10 12 8 7 5 4 2 2 15 11 7 5 6 6 14 6 19 21 24 22 24
12 11 11 12 11 10 10 10 11 12 11 12 12 12 12 11 5 8 3 23 11 8 6 11 13 10 9 11 7 5 2 4 5 4 11 8 5 3 14 10 17 23 23 24 20
12 12 12 11 11 11 11 11 11 12 12 12 12 13 12 5 1 2 5 14 9 5 7 5 9 7 9 9 8 5 4 5 2 5 4 3 3 5 5 11 20 20 18 20 18
11 12 12 12 12 12 12 11 11 11 11 11 11 11 8 4 11 9 10 8 6 4 9 11 10 11 11 0 10 10 5 9 8 9 5 1 4 8 11 15 16 16 14 22 18
11 12 12 12 12 12 12 12 12 11 11 10 9 10 4 5 6 13 12 7 8 8 9 11 10 10 8 5 4 13 13 6 7 7 2 8 9 5 4 11 18 13 10 7 21
11 12 12 13 12 12 13 12 12 12 11 10 8 6 6 14 8 10 13 8 8 9 9 15 18 12 7 4 19 23 19 10 5 3 4 9 4 3 11 17 16 13 8 8 9
11 11 12 12 13 13 13 13 13 12 10 9 6 5 8 8 13 10 8 9 10 11 14 14 12 9 5 3 10 10 7 7 2 4 5 4 3 5 3 18 16 14 11 12 9
11 12 12 13 13 13 13 14 14 12 8 7 4 4 9 2 4 9 8 10 11 10 12 17 8 6 8 6 5 4 5 10 2 1 2 2 2 6 5 11 15 13 10 12 12
11 12 12 12 12 13 15 16 8 9 6 8 8 6 9 7 6 9 7 9 11 9 13 9 2 1 5 3 7 9 7 6 10 6 1 2 2 7 5 9 13 11 10 10 13
12 12 13 12 12 11 11 2 1 3 6 10 5 6 8 8 4 4 7 5 7 5 5 4 2 8 11 12 16 7 7 14 9 8 5 2 2 11 7 9 13 10 12 12 13
12 13 13 13 13 9 5 5 8 5 7 10 17 7 6 2 3 8 7 5 5 6 8 2 10 12 15 15 15 14 11 11 8 16 3 5 6 11 11 6 8 6 13 14 11
13 14 14 14 16 6 7 11 10 13 4 9 15 10 6 3 8 8 8 9 7 8 9 9 13 18 15 13 14 15 17 11 11 11 7 10 4 8 11 8 10 7 5 10 19
14 16 17 21 4 4 7 12 13 5 4 6 5 4 6 6 6 13 10 8 6 10 11 9 15 14 11 10 8 4 13 14 21 9 5 9 2 6 10 16 8 9 6 4 17
17 16 15 8 9 5 9 11 6 2 4 9 5 4 6 6 6 9 9 7 11 8 7 12 10 9 9 10 13 10 26 17 20 6 9 5 2 4 11 18 20 13 6 6 15
15 15 15 2 5 12 14 15 8 2 2 4 9 8 8 9 7 9 6 6 10 11 9 10 10 7 8 7 4 19 18 9 4 4 3 11 4 8 13 28 21 14 10 8 8
16 11 6 6 6 9 13 5 3 3 5 6 2 7 9 6 14 8 7 6 4 1 5 9 11 9 9 3 11 19 12 2 1 3 5 4 9 17 13 18 24 22 14 12 13
18 15 9 8 8 8 7 4 4 11 14 13 10 7 3 8 7 8 9 6 10 9 6 6 7 7 3 5 7 12 10 6 5 2 5 6 7 8 16 15 20 21 15 14 15
27 4 4 6 13 5 2 4 2 8 11 8 13 4 5 6 2 3 8 9 9 9 7 4 6 6 10 9 8 10 6 15 10 5 4 7 5 16 9 12 17 19 17 18 14
4 4 9 13 12 6 2 7 3 5 8 9 9 7 4 1 7 11 10 6 15 8 8 8 4 8 6 8 11 7 6 2 3 8 5 8 7 3 10 5 4 14 18 16 10
3 3 9 7 10 2 4 4 4 5 4 6 9 8 9 5 10 4 5 7 10 12 10 7 4 11 9 5 8 5 5 3 1 3 4 4 4 7 17 5 3 8 9 13 13
5 4 6 2 1 4 9 3 1 5 4 5 3 4 7 10 6 5 6 8 10 9 8 8 3 5 8 9 11 8 8 7 6 9 2 6 5 8 16 11 9 14 15 12 16
4 6 9 4 4 7 3 4 5 4 8 6 8 8 7 8 6 3 5 5 8 9 5 7 6 6 12 8 6 5 8 6 5 2 5 3 5 13 11 12 17 18 16 14 12
4 5 2 3 6 9 4 1 5 6 0 4 6 6 6 6 10 6 2 1 4 6 8 4 4 4 2 8 10 8 12 9 5 2 5 4 5 10 9 10 3 9 13 11 19
4 5 7 5 3 6 6 6 6 2 5 2 4 8 6 6 3 4 2 4 4 8 7 3 6 5 7 11 9 7 14 14 8 9 5 6 6 9 9 8 4 8 19 13 13
3 6 10 8 2 2 4 6 1 6 4 7 7 12 9 4 5 2 5 5 2 3 6 5 4 6 5 12 10 6 13 21 16 15 10 12 7 2 8 2 11 10 22 21 17
5 5 4 7 7 3 3 5 5 6 4 5 5 5 8 4 6 4 8 7 5 2 3 3 3 5 0 8 10 4 14 18 12 17 5 5 5 6 7 8 6 16 7 4 13
Wind_Direction
339 333 329 326 324 319 315 311 309 311 312 315 319 324 324 322 312 223 233 233 200 216 186 272 211 235 244 254 217 210 46 117 168 169 210 279 120 196 84 127 141 137 129 138 128
342 339 333 326 319 318 316 312 311 309 310 313 316 322 325 328 291 244 242 220 137 148 225 240 210 224 235 247 238 196 71 99 207 174 161 197 113 144 111 189 116 135 121 143 140
346 339 330 329 322 317 312 309 308 308 310 313 316 319 322 318 268 238 180 223 171 174 263 251 265 224 235 238 191 164 115 14 102 145 164 162 146 200 131 137 154 138 141 148 145
344 338 332 329 323 321 319 315 310 311 313 315 317 319 315 272 84 123 119 144 167 199 242 259 274 254 243 250 168 99 345 87 104 54 55 35 72 44 71 186 137 142 153 154 147
340 338 335 332 327 322 319 315 314 314 312 314 318 324 313 224 250 159 158 152 162 181 226 221 266 248 230 51 83 66 73 100 116 75 83 225 108 125 260 130 134 147 159 156 148
334 337 337 334 325 319 316 315 314 312 311 312 317 313 243 252 146 155 173 153 202 184 223 229 249 245 277 265 122 114 95 113 119 40 45 111 136 104 242 136 142 150 144 151 149
334 337 335 331 326 318 312 308 307 305 303 303 308 290 265 248 328 172 149 176 209 181 226 232 246 268 271 332 124 141 128 120 47 4 39 338 150 143 154 155 142 140 166 134 146
334 336 334 332 325 317 310 303 301 295 287 285 289 286 252 238 238 280 218 165 206 199 232 256 249 269 292 335 114 135 138 153 269 359 322 26 160 189 323 148 144 155 179 155 143
332 333 334 332 324 316 302 299 295 287 266 257 242 226 265 295 239 234 243 180 198 220 233 250 235 258 320 280 101 15 223 116 120 321 341 72 215 295 352 169 150 169 182 155 135
334 329 332 328 318 318 308 287 287 311 222 216 260 274 262 224 187 219 229 216 194 201 232 244 131 241 281 259 226 184 211 168 127 187 170 12 30 306 319 164 159 177 168 144 140
329 327 327 323 318 326 330 257 250 225 253 220 219 235 315 92 74 241 204 238 178 205 217 181 147 215 237 240 256 102 93 101 122 120 100 63 295 275 331 345 162 192 160 155 152
329 327 323 324 316 323 298 251 241 299 306 247 251 257 293 16 153 233 151 205 184 207 216 227 225 231 235 244 244 77 110 115 127 152 106 133 274 314 310 299 303 199 174 167 152
330 329 327 323 316 284 225 249 278 296 280 289 213 210 195 251 228 174 177 216 185 235 219 216 243 219 236 251 251 134 165 204 147 137 93 130 300 267 295 274 275 294 257 177 158
331 332 331 324 317 313 249 248 238 310 296 197 212 140 151 222 249 154 207 194 183 211 244 235 258 246 217 252 244 121 10 180 145 137 148 238 157 208 247 260 249 256 229 233 162
330 330 326 338 310 278 275 325 311 348 294 152 100 125 166 197 118 161 197 264 263 250 173 252 251 264 265 217 253 134 107 219 162 120 110 237 112 232 219 248 234 223 177 210 167
326 325 326 183 210 251 297 296 307 230 299 122 149 199 179 230 204 139 170 243 289 297 304 247 283 248 256 240 84 143 131 115 62 87 132 177 181 236 205 221 222 216 177 215 185
306 297 286 304 237 332 316 308 287 235 170 24 356 168 208 202 131 165 179 209 243 231 273 278 265 277 236 288 140 120 136 115 34 54 247 183 160 241 231 215 211 210 182 201 192
308 307 224 222 249 309 304 317 253 10 18 359 347 304 311 150 149 191 162 217 231 257 283 223 289 262 283 215 219 175 167 220 131 89 327 143 211 263 296 209 199 203 185 204 194
312 181 237 231 217 233 273 280 348 1 19 336 312 54 334 1 163 231 193 197 218 221 220 327 254 241 213 213 221 264 187 228 101 47 67 298 320 311 4 146 176 187 186 201 200
301 283 265 244 175 201 257 268 332 67 2 318 329 354 26 14 43 14 16 38 358 335 5 276 306 285 277 200 235 192 252 239 291 150 172 196 181 223 18 14 127 184 187 204 207
244 273 258 181 169 215 241 251 8 44 56 330 353 342 347 31 76 40 338 313 2 341 350 332 354 287 343 164 194 290 297 311 179 207 190 118 272 184 143 160 5 307 282 228 219
300 282 246 196 260 231 236 173 310 347 43 330 252 274 343 343 98 41 337 310 354 321 0 356 270 304 273 293 179 205 227 220 134 284 233 164 222 161 152 156 161 211 251 261 241
292 276 276 151 244 275 171 207 167 37 343 8 339 15 347 301 105 190 260 266 325 343 35 341 335 344 329 338 2 207 256 259 241 288 262 191 245 125 184 165 210 211 233 243 169
282 287 223 170 229 260 344 294 119 141 291 42 314 303 335 350 61 185 356 225 330 316 350 17 258 219 194 255 288 311 325 260 251 240 256 276 167 153 166 157 244 307 264 222 144
232 273 304 289 4 357 65 343 315 40 39 179 318 324 37 360 60 32 352 320 326 18 344 337 263 286 336 253 303 291 302 318 258 251 215 174 111 100 129 147 178 63 20 261 120
285 346 310 301 114 279 272 284 319 80 43 341 13 357 341 6 96 3 331 331 334 349 317 292 283 28 344 359 305 315 8 16 3 5 35 91 80 170 166 162 42 33 14 295 128
339 333 304 291 309 273 261 86 59 86 264 236 69 338 323 5 348 296 183 245 260 148 324 270 50 24 131 336 324 66 360 38 43 23 33 55 66 126 69 68 57 70 293 352 61